Location: Newark
(46.3167°N, 0.4667°W)
Time: 08:04:45
(UTC+00:00)

N. Korean satellite - Visible Passes

Search period start: 22 September 2019 00:00
Search period end: 02 October 2019 00:00
Orbit: 455 x 509 km, 97.2° (Epoch: 21 September)

Date Brightness Start Highest point End Pass type
(mag) Time Alt. Az. Time Alt. Az. Time Alt. Az.
24 Sep 10.3 04:54:27 10° ENE 04:55:24 11° E 04:56:20 10° ESE visible
27 Sep 9.8 05:10:50 10° NE 05:13:14 18° E 05:15:39 10° SE visible
01 Oct 9.9 05:03:35 10° NE 05:05:37 15° E 05:07:39 10° SE visible
